| time (UTC) | temp F | wind direction | speed MPH | gust MPH | rain 1hr in | rain 24hr in | rain mn in | humidity % | barometer mb |
| 20260507090352 | 42 | 217 | 2.0 | 4.0 | 0.00 | 0.05 | 0.00 | 83 | 1022.2 |
| 20260507090053 | 42 | 221 | 1.0 | 6.0 | 0.00 | 0.05 | 0.00 | 82 | 1022.3 |
| 20260507083033 | 42 | 213 | 1.0 | 8.0 | 0.00 | 0.10 | 0.00 | 82 | 1022.3 |
| 20260507080352 | 42 | 196 | 2.0 | 5.0 | 0.00 | 0.10 | 0.00 | 83 | 1022.4 |
| 20260507080310 | 42 | 196 | 2.0 | 5.0 | 0.00 | 0.10 | 0.00 | 83 | 1022.4 |
| 20260507080022 | 42 | 178 | 2.0 | 5.0 | 0.00 | 0.10 | 0.00 | 83 | 1022.4 |
| 20260507073046 | 41 | 189 | 2.0 | 4.0 | 0.00 | 0.13 | 0.00 | 85 | 1022.5 |
| 20260507070320 | 40 | 153 | 2.0 | 5.0 | 0.00 | 0.13 | 0.00 | 90 | 1022.6 |
| 20260507070014 | 39 | 180 | 2.0 | 3.0 | 0.00 | 0.13 | 0.00 | 90 | 1022.7 |
| 20260507063014 | 39 | 171 | 0.0 | 1.0 | 0.00 | 0.15 | 0.00 | 90 | 1022.9 |
| 20260507060328 | 40 | 173 | 1.0 | 2.0 | 0.00 | 0.15 | 0.00 | 88 | 1023.1 |
| 20260507060030 | 40 | 173 | 1.0 | 2.0 | 0.00 | 0.15 | 0.00 | 88 | 1023.1 |
| 20260507053046 | 41 | 140 | 1.0 | 2.0 | 0.00 | 0.18 | 0.00 | 89 | 1023.3 |
| 20260507050408 | 41 | 140 | 0.0 | 1.0 | 0.00 | 0.18 | 0.00 | 92 | 1023.6 |
| 20260507050022 | 41 | 140 | 0.0 | 1.0 | 0.00 | 0.18 | 0.00 | 92 | 1023.6 |
| 20260507043125 | 41 | 140 | 0.0 | 0.0 | 0.00 | 0.23 | 0.00 | 93 | 1023.6 |
| 20260507040315 | 41 | 140 | 0.0 | 0.0 | 0.00 | 0.23 | 0.00 | 93 | 1023.9 |
| 20260507040043 | 41 | 140 | 0.0 | 0.0 | 0.00 | 0.23 | 0.00 | 93 | 1023.9 |
| 20260507033130 | 41 | 84 | 0.0 | 0.0 | 0.00 | 0.36 | 0.23 | 93 | 1024.1 |
| 20260507030330 | 42 | 84 | 0.0 | 0.0 | 0.00 | 0.36 | 0.23 | 92 | 1024.1 |
| 20260507030029 | 42 | 84 | 0.0 | 0.0 | 0.00 | 0.36 | 0.23 | 92 | 1024.1 |
| 20260507023103 | 42 | 84 | 0.0 | 0.0 | 0.00 | 0.49 | 0.23 | 92 | 1024.0 |
| 20260507020321 | 43 | 84 | 0.0 | 0.0 | 0.00 | 0.49 | 0.23 | 90 | 1024.0 |
| 20260507020022 | 43 | 84 | 0.0 | 0.0 | 0.00 | 0.49 | 0.23 | 90 | 1023.9 |
| 20260507013043 | 44 | 84 | 0.0 | 0.0 | 0.00 | 0.55 | 0.23 | 86 | 1024.0 |
| 20260507010317 | 45 | 84 | 0.0 | 0.0 | 0.00 | 0.55 | 0.23 | 83 | 1023.9 |
| 20260507010013 | 45 | 84 | 0.0 | 0.0 | 0.00 | 0.55 | 0.23 | 83 | 1024.0 |
| 20260507003039 | 46 | 84 | 0.0 | 0.0 | 0.00 | 0.59 | 0.23 | 77 | 1024.1 |
| 20260507000351 | 47 | 84 | 0.0 | 0.0 | 0.00 | 0.59 | 0.23 | 75 | 1023.9 |
| 20260507000033 | 47 | 84 | 0.0 | 1.0 | 0.00 | 0.59 | 0.23 | 76 | 1023.8 |
| 20260506233052 | 47 | 84 | 1.0 | 3.0 | 0.00 | 0.90 | 0.23 | 69 | 1023.5 |
| 20260506233010 | 47 | 84 | 1.0 | 3.0 | 0.00 | 0.90 | 0.23 | 69 | 1023.5 |
| 20260506230309 | 48 | 345 | 1.0 | 2.0 | 0.00 | 0.90 | 0.23 | 70 | 1023.5 |
| 20260506230029 | 48 | 345 | 1.0 | 2.0 | 0.00 | 0.90 | 0.23 | 70 | 1023.5 |
| 20260506223029 | 48 | 355 | 2.0 | 6.0 | 0.00 | 1.11 | 0.23 | 70 | 1023.6 |
| 20260506220347 | 49 | 346 | 4.0 | 6.0 | 0.00 | 1.11 | 0.23 | 67 | 1023.1 |
| 20260506220047 | 49 | 355 | 2.0 | 5.0 | 0.00 | 1.11 | 0.23 | 67 | 1023.1 |
| 20260506213132 | 50 | 335 | 3.0 | 8.0 | 0.00 | 1.26 | 0.23 | 67 | 1023.0 |
| 20260506210347 | 50 | 21 | 2.0 | 10.0 | 0.00 | 1.26 | 0.23 | 68 | 1022.7 |
| 20260506210049 | 50 | 326 | 2.0 | 12.0 | 0.00 | 1.26 | 0.23 | 69 | 1022.6 |
| 20260506203021 | 50 | 280 | 2.0 | 10.0 | 0.00 | 1.45 | 0.23 | 68 | 1022.4 |
| 20260506200354 | 51 | 22 | 4.0 | 11.0 | 0.00 | 1.45 | 0.23 | 66 | 1022.4 |
| 20260506200015 | 51 | 259 | 6.0 | 11.0 | 0.00 | 1.45 | 0.23 | 64 | 1022.5 |
| 20260506193012 | 52 | 304 | 7.0 | 14.0 | 0.00 | 1.50 | 0.23 | 66 | 1022.3 |
| 20260506190313 | 53 | 327 | 6.0 | 12.0 | 0.00 | 1.50 | 0.23 | 68 | 1022.4 |
| 20260506190046 | 53 | 296 | 5.0 | 11.0 | 0.00 | 1.50 | 0.23 | 69 | 1022.5 |
| 20260506183052 | 53 | 268 | 5.0 | 15.0 | 0.00 | 1.50 | 0.23 | 72 | 1022.4 |
| 20260506180408 | 51 | 355 | 5.0 | 15.0 | 0.00 | 1.50 | 0.23 | 81 | 1022.0 |
| 20260506180024 | 51 | 302 | 6.0 | 15.0 | 0.00 | 1.50 | 0.23 | 80 | 1022.0 |
| 20260506173059 | 51 | 13 | 5.0 | 13.0 | 0.00 | 1.50 | 0.23 | 82 | 1022.3 |
| 20260506170315 | 50 | 360 | 6.0 | 11.0 | 0.00 | 1.50 | 0.23 | 87 | 1021.9 |
| 20260506170055 | 50 | 277 | 5.0 | 9.0 | 0.00 | 1.50 | 0.23 | 86 | 1021.8 |
| 20260506163014 | 50 | 281 | 6.0 | 10.0 | 0.00 | 1.50 | 0.23 | 88 | 1021.9 |
| 20260506160325 | 50 | 309 | 3.0 | 9.0 | 0.00 | 1.50 | 0.23 | 90 | 1021.5 |
| 20260506160109 | 50 | 67 | 4.0 | 9.0 | 0.00 | 1.50 | 0.23 | 90 | 1021.4 |
| 20260506153016 | 50 | 340 | 3.0 | 10.0 | 0.00 | 1.50 | 0.23 | 91 | 1021.1 |
| 20260506150334 | 50 | 288 | 6.0 | 10.0 | 0.00 | 1.50 | 0.23 | 93 | 1020.7 |
| 20260506150009 | 50 | 300 | 6.0 | 10.0 | 0.00 | 1.50 | 0.23 | 93 | 1020.6 |
| 20260506143022 | 48 | 292 | 4.0 | 9.0 | 0.00 | 1.50 | 0.23 | 94 | 1020.3 |
| 20260506140406 | 48 | 298 | 3.0 | 6.0 | 0.00 | 1.50 | 0.23 | 97 | 1020.3 |
| 20260506133013 | 48 | 292 | 1.0 | 4.0 | 0.00 | 1.50 | 0.23 | 99 | 1019.7 |
| 20260506130327 | 47 | 306 | 1.0 | 4.0 | 0.00 | 1.50 | 0.23 | 99 | 1019.2 |
| 20260506130019 | 47 | 306 | 2.0 | 4.0 | 0.00 | 1.50 | 0.23 | 99 | 1019.2 |
| 20260506123045 | 47 | 315 | 2.0 | 4.0 | 0.00 | 1.50 | 0.23 | 100 | 1019.4 |
| 20260506120358 | 47 | 306 | 1.0 | 5.0 | 0.00 | 1.50 | 0.23 | 99 | 1019.1 |
| 20260506120100 | 47 | 298 | 3.0 | 5.0 | 0.00 | 1.50 | 0.23 | 99 | 1019.2 |
| 20260506113018 | 46 | 253 | 2.0 | 3.0 | 0.01 | 1.50 | 0.23 | 99 | 1018.6 |
| 20260506110332 | 47 | 311 | 0.0 | 4.0 | 0.01 | 1.50 | 0.23 | 99 | 1018.3 |
| 20260506110034 | 47 | 355 | 2.0 | 4.0 | 0.02 | 1.50 | 0.23 | 99 | 1018.5 |
| 20260506103015 | 47 | 306 | 0.0 | 2.0 | 0.03 | 1.49 | 0.22 | 99 | 1017.6 |
| 20260506100315 | 47 | 306 | 0.0 | 4.0 | 0.04 | 1.49 | 0.22 | 99 | 1017.8 |
| 20260506100027 | 47 | 304 | 2.0 | 6.0 | 0.03 | 1.48 | 0.21 | 99 | 1018.1 |
| 20260506093053 | 47 | 317 | 1.0 | 2.0 | 0.04 | 1.46 | 0.19 | 99 | 1018.0 |